GW5308 Weather Reports


time (UTC)temp
F
wind
direction
speed
knots
gust
knots
rain 1hr
in
rain 24hr
in
rain mn
in
humidity
%
barometer
mb
20260505204536 82 299 2.6 7.0 0.00 0.00 0.00 55 1014.1
20260505204015 83 338 0.9 4.3 0.00 0.00 0.00 54 1014.2
20260505203514 83 354 1.7 4.3 0.00 0.00 0.00 55 1014.2
20260505203044 83 0 0.0 3.5 0.00 0.00 0.00 56 1014.2
20260505202515 83 4 0.9 3.5 0.00 0.00 0.00 56 1014.3
20260505202016 83 67 0.0 4.3 0.00 0.00 0.00 56 1014.4
20260505201547 82 330 0.9 4.3 0.00 0.00 0.00 56 1014.5
20260505201014 82 98 1.7 4.3 0.00 0.00 0.00 55 1014.4
20260505200515 83 245 0.9 5.2 0.00 0.00 0.00 55 1014.6
20260505200033 82 82 1.7 5.2 0.00 0.00 0.00 58 1014.6
20260505195514 82 298 0.0 4.3 0.00 0.00 0.00 59 1014.7
20260505195015 81 0 0.9 4.3 0.00 0.00 0.00 58 1014.7
20260505194536 81 20 0.9 4.3 0.00 0.00 0.00 57 1014.6
20260505194018 81 8 0.9 4.3 0.00 0.00 0.00 58 1014.9
20260505193513 81 297 0.9 4.3 0.00 0.00 0.00 58 1014.9
20260505193044 80 292 0.9 2.6 0.00 0.00 0.00 58 1014.9
20260505192516 81 96 0.9 3.5 0.00 0.00 0.00 58 1014.8
20260505192015 81 6 0.9 3.5 0.00 0.00 0.00 57 1014.8
20260505191541 81 20 0.9 3.5 0.00 0.00 0.00 56 1014.9
20260505191018 81 312 0.0 5.2 0.00 0.00 0.00 55 1014.9
20260505190514 81 25 0.0 5.2 0.00 0.00 0.00 56 1015.0
20260505190036 81 300 1.7 6.1 0.00 0.00 0.00 56 1015.2
20260505185520 82 349 1.7 6.1 0.00 0.00 0.00 55 1015.1
20260505185013 83 48 0.9 4.3 0.00 0.00 0.00 54 1015.2
20260505184534 84 11 0.9 4.3 0.00 0.00 0.00 53 1015.2
20260505184014 85 34 0.9 4.3 0.00 0.00 0.00 52 1015.1
20260505183514 85 73 0.9 3.5 0.00 0.00 0.00 52 1015.0
20260505183045 85 326 0.9 4.3 0.00 0.00 0.00 53 1015.1
20260505182516 85 290 0.9 5.2 0.00 0.00 0.00 53 1015.1
20260505182016 85 318 0.9 5.2 0.00 0.00 0.00 53 1015.2
20260505181533 84 66 1.7 4.3 0.00 0.00 0.00 53 1015.4
20260505181021 84 0 0.0 2.6 0.00 0.00 0.00 56 1015.3
20260505180514 84 0 0.0 2.6 0.00 0.00 0.00 55 1015.4
20260505180036 84 288 0.0 1.7 0.00 0.00 0.00 54 1015.6
20260505175515 84 338 0.0 1.7 0.00 0.00 0.00 54 1015.8
20260505175020 84 0 0.0 3.5 0.00 0.00 0.00 56 1015.6
20260505174540 83 311 0.0 3.5 0.00 0.00 0.00 56 1015.6
20260505174016 83 15 0.9 3.5 0.00 0.00 0.00 54 1015.6
20260505173513 83 298 0.9 2.6 0.00 0.00 0.00 55 1015.7
20260505173038 82 273 0.9 5.2 0.00 0.00 0.00 59 1015.8
20260505172513 81 95 0.9 5.2 0.00 0.00 0.00 60 1015.7
20260505172025 82 360 0.9 4.3 0.00 0.00 0.00 57 1015.9
20260505171539 82 307 0.9 4.3 0.00 0.00 0.00 57 1015.8
20260505171016 81 16 0.9 4.3 0.00 0.00 0.00 57 1016.0
20260505170519 82 354 0.9 3.5 0.00 0.00 0.00 56 1015.9
20260505170034 82 285 0.9 3.5 0.00 0.00 0.00 59 1015.8
20260505165514 81 30 0.9 4.3 0.00 0.00 0.00 60 1015.9
20260505165014 80 300 0.9 4.3 0.00 0.00 0.00 58 1016.0
20260505164537 80 332 1.7 4.3 0.00 0.00 0.00 60 1016.0
20260505164016 80 0 0.9 4.3 0.00 0.00 0.00 61 1016.1
20260505163516 80 316 0.0 3.5 0.00 0.00 0.00 62 1016.1
20260505163035 79 0 0.9 3.5 0.00 0.00 0.00 62 1016.1
20260505162514 79 316 0.9 3.5 0.00 0.00 0.00 62 1016.1
20260505162016 79 15 0.0 2.6 0.00 0.00 0.00 62 1016.1
20260505161536 80 300 0.9 2.6 0.00 0.00 0.00 61 1016.1
20260505161013 80 333 0.0 0.0 0.00 0.00 0.00 60 1016.0
20260505160514 80 0 0.0 2.6 0.00 0.00 0.00 61 1016.1
20260505153034 80 0 0.0 3.5 0.00 0.00 0.00 61 1015.9
20260505152516 80 167 0.9 3.5 0.00 0.00 0.00 62 1016.0
20260505152020 80 335 0.0 1.7 0.00 0.00 0.00 60 1016.0
20260505151533 81 287 0.0 2.6 0.00 0.00 0.00 60 1016.0
20260505151015 80 271 0.9 2.6 0.00 0.00 0.00 61 1016.0
20260505150522 81 289 0.0 2.6 0.00 0.00 0.00 58 1016.1
20260505140522 78 90 0.9 2.6 0.00 0.00 0.00 66 1015.8
20260505125016 68 0 0.0 0.0 0.00 0.00 0.00 98 1015.7
20260505124533 66 0 0.0 0.0 0.00 0.00 0.00 100 1015.7
20260505124018 65 0 0.0 0.9 0.00 0.00 0.00 100 1015.5
20260505123516 64 0 0.0 0.9 0.00 0.00 0.00 100 1015.5
20260505123046 63 0 0.0 0.9 0.00 0.00 0.00 100 1015.6
20260505122518 61 0 0.0 0.0 0.00 0.00 0.00 100 1015.5
20260505122014 60 0 0.0 0.0 0.00 0.00 0.00 100 1015.5
20260505121534 59 0 0.0 0.0 0.00 0.00 0.00 100 1015.4
20260505121017 59 0 0.0 0.0 0.00 0.00 0.00 100 1015.4
20260505120515 58 0 0.0 0.0 0.00 0.00 0.00 100 1015.3
20260505120046 57 0 0.0 0.0 0.00 0.00 0.00 100 1015.2
20260505115513 57 0 0.0 0.0 0.00 0.00 0.00 100 1015.2
20260505115014 56 0 0.0 0.0 0.00 0.00 0.00 100 1015.2
20260505114546 56 0 0.0 0.0 0.00 0.00 0.00 100 1015.2
20260505114016 55 0 0.0 0.0 0.00 0.00 0.00 100 1015.3
20260505113513 55 0 0.0 0.0 0.00 0.00 0.00 100 1015.3
20260505113031 54 0 0.0 0.0 0.00 0.00 0.00 100 1015.2
20260505112512 54 0 0.0 0.0 0.00 0.00 0.00 100 1015.2
20260505112011 54 0 0.0 0.0 0.00 0.00 0.00 100 1015.2
20260505111529 54 0 0.0 0.0 0.00 0.00 0.00 100 1015.1
20260505111014 54 0 0.0 0.0 0.00 0.00 0.00 100 1015.0
20260505110511 53 0 0.0 0.0 0.00 0.00 0.00 100 1014.8
20260505102014 53 0 0.0 0.0 0.00 0.00 0.00 100 1014.3
20260505101530 53 0 0.0 0.0 0.00 0.00 0.00 100 1014.6
20260505101015 53 0 0.0 0.0 0.00 0.00 0.00 100 1014.6
20260505100512 53 0 0.0 0.0 0.00 0.00 0.00 100 1014.7
20260505100032 54 0 0.0 0.0 0.00 0.00 0.00 100 1014.6
20260505095514 53 0 0.0 0.0 0.00 0.00 0.00 100 1014.4
20260505095017 53 0 0.0 0.0 0.00 0.00 0.00 100 1014.3
20260505094534 53 0 0.0 0.0 0.00 0.00 0.00 100 1014.3
20260505094013 54 0 0.0 0.0 0.00 0.00 0.00 100 1014.2
20260505093514 54 0 0.0 0.0 0.00 0.00 0.00 100 1014.2
20260505093040 54 0 0.0 0.0 0.00 0.00 0.00 100 1014.2
20260505092515 54 0 0.0 0.0 0.00 0.00 0.00 100 1014.2
20260505092015 54 0 0.0 0.0 0.00 0.00 0.00 100 1014.1
20260505091540 54 0 0.0 0.0 0.00 0.00 0.00 100 1014.1
20260505091013 54 0 0.0 0.0 0.00 0.00 0.00 100 1014.2
20260505090514 54 0 0.0 0.0 0.00 0.00 0.00 100 1014.1
20260505090045 54 0 0.0 0.0 0.00 0.00 0.00 100 1013.9
20260505085511 54 0 0.0 0.0 0.00 0.00 0.00 100 1014.1
20260505085012 54 0 0.0 0.0 0.00 0.00 0.00 100 1014.1
20260505084532 54 0 0.0 0.0 0.00 0.00 0.00 100 1014.3
20260505084014 54 0 0.0 0.0 0.00 0.00 0.00 100 1014.3
20260505083516 54 0 0.0 0.0 0.00 0.00 0.00 100 1014.2
20260505083030 54 0 0.0 0.0 0.00 0.00 0.00 100 1014.0
20260505082512 54 0 0.0 0.0 0.00 0.00 0.00 100 1014.0
20260505082013 54 0 0.0 0.0 0.00 0.00 0.00 100 1014.0
20260505081542 54 0 0.0 0.0 0.00 0.00 0.00 100 1013.8
20260505081015 54 0 0.0 0.0 0.00 0.00 0.00 100 1013.9
20260505080516 54 0 0.0 0.0 0.00 0.00 0.00 100 1014.0
20260505080046 54 0 0.0 0.0 0.00 0.00 0.00 100 1014.1
20260505075516 54 0 0.0 0.0 0.00 0.00 0.00 100 1014.1
20260505075016 54 0 0.0 0.0 0.00 0.00 0.00 100 1014.1
20260505074530 54 0 0.0 0.0 0.00 0.00 0.00 100 1014.2
20260505074015 54 0 0.0 0.0 0.00 0.00 0.00 100 1014.1
20260505073514 54 0 0.0 0.0 0.00 0.00 0.00 100 1014.0
20260505073045 54 0 0.0 0.0 0.00 0.00 0.00 99 1014.2
20260505072512 54 0 0.0 0.0 0.00 0.00 0.00 100 1014.2
20260505072015 54 0 0.0 0.0 0.00 0.00 0.00 100 1014.1
20260505071534 54 0 0.0 0.0 0.00 0.00 0.00 100 1014.1
20260505071014 54 0 0.0 0.0 0.00 0.00 0.00 99 1014.0
20260505070514 54 0 0.0 0.0 0.00 0.00 0.00 99 1014.0
20260505070034 55 0 0.0 0.0 0.00 0.00 0.00 99 1014.1
20260505065515 55 0 0.0 0.0 0.00 0.00 0.00 99 1014.2
20260505065013 55 0 0.0 0.0 0.00 0.00 0.00 99 1014.2
20260505064531 55 0 0.0 0.0 0.00 0.00 0.00 99 1014.2
20260505064016 55 0 0.0 0.0 0.00 0.00 0.00 99 1014.3
20260505063518 55 0 0.0 0.0 0.00 0.00 0.00 99 1014.4
20260505063033 55 0 0.0 0.0 0.00 0.00 0.00 99 1014.4
20260505062515 55 0 0.0 0.0 0.00 0.00 0.00 99 1014.5
20260505062014 55 0 0.0 0.0 0.00 0.00 0.00 99 1014.5
20260505061535 55 0 0.0 0.0 0.00 0.00 0.00 99 1014.5
20260505061015 55 0 0.0 0.0 0.00 0.00 0.00 99 1014.5
20260505060514 55 0 0.0 0.0 0.00 0.00 0.00 99 1014.5
20260505060036 55 0 0.0 0.0 0.00 0.00 0.00 99 1014.6
20260505055518 55 0 0.0 0.0 0.00 0.00 0.00 98 1014.6
20260505055017 55 0 0.0 0.0 0.00 0.00 0.00 98 1014.7
20260505054535 55 0 0.0 0.0 0.00 0.00 0.00 98 1014.6
20260505054014 56 0 0.0 0.0 0.00 0.00 0.00 98 1014.9
20260505053513 56 0 0.0 0.0 0.00 0.00 0.00 98 1014.9
20260505053034 56 0 0.0 0.0 0.00 0.00 0.00 99 1015.0
20260505052520 55 0 0.0 0.0 0.00 0.00 0.00 98 1015.0
20260505052018 55 0 0.0 0.0 0.00 0.00 0.00 97 1015.1
20260505051536 56 0 0.0 0.0 0.00 0.00 0.00 98 1015.1
20260505051011 56 0 0.0 0.0 0.00 0.00 0.00 97 1015.3
20260505050516 56 0 0.0 0.0 0.00 0.00 0.00 97 1015.4
20260505050109 56 0 0.0 0.0 0.00 0.00 0.00 97 1015.3
20260505041547 56 0 0.0 0.0 0.00 0.00 0.00 96 1015.4
20260505041014 57 0 0.0 0.0 0.00 0.00 0.00 96 1015.4
20260505040513 56 0 0.0 0.0 0.00 0.00 0.00 96 1015.4
20260505040031 57 0 0.0 0.0 0.00 0.00 0.00 95 1015.4
20260505035512 57 0 0.0 0.0 0.00 0.00 0.00 95 1015.5
20260505035014 57 0 0.0 0.0 0.00 0.00 0.00 96 1015.5
20260505034532 57 0 0.0 0.0 0.00 0.00 0.00 95 1015.5
20260505034015 57 0 0.0 0.0 0.00 0.00 0.00 95 1015.6
20260505033513 57 0 0.0 0.0 0.00 0.00 0.00 95 1015.7
20260505033032 57 0 0.0 0.0 0.00 0.00 0.00 95 1015.8
20260505032516 57 0 0.0 0.0 0.00 0.00 0.00 94 1015.8
20260505032011 57 0 0.0 0.0 0.00 0.00 0.00 94 1015.8
20260505031540 57 0 0.0 0.0 0.00 0.00 0.00 93 1015.9
20260505031013 58 0 0.0 0.0 0.00 0.00 0.00 93 1015.9
20260505030513 58 0 0.0 0.0 0.00 0.00 0.00 94 1015.9
20260505030037 58 0 0.0 0.0 0.00 0.00 0.00 92 1015.9
20260505025513 58 0 0.0 0.0 0.00 0.00 0.00 92 1015.9
20260505025013 58 0 0.0 0.0 0.00 0.00 0.00 91 1015.9
20260505024531 58 0 0.0 0.0 0.00 0.00 0.00 91 1015.9
20260505024013 58 0 0.0 0.0 0.00 0.00 0.00 90 1015.9
20260505023512 59 0 0.0 0.0 0.00 0.00 0.00 90 1015.9
20260505023039 59 0 0.0 0.0 0.00 0.00 0.00 90 1015.9
20260505022515 59 0 0.0 0.0 0.00 0.00 0.00 89 1015.9
20260505022016 60 0 0.0 0.0 0.00 0.00 0.00 89 1015.9
20260505021534 60 0 0.0 0.0 0.00 0.00 0.00 89 1015.9
20260505021013 60 0 0.0 0.0 0.00 0.00 0.00 88 1015.9
20260505020515 60 0 0.0 0.0 0.00 0.00 0.00 87 1015.9
20260505020036 61 0 0.0 0.0 0.00 0.00 0.00 87 1015.9
20260505015517 61 0 0.0 0.0 0.00 0.00 0.00 87 1015.9
20260505015014 61 0 0.0 0.0 0.00 0.00 0.00 86 1015.8
20260505014549 61 0 0.0 0.0 0.00 0.00 0.00 86 1015.7
20260505014013 62 0 0.0 0.0 0.00 0.00 0.00 86 1015.7
20260505013513 62 0 0.0 0.0 0.00 0.00 0.00 85 1015.7
20260505013036 62 0 0.0 0.0 0.00 0.00 0.00 84 1015.6
20260505012516 62 0 0.0 0.0 0.00 0.00 0.00 82 1015.4
20260505012017 63 0 0.0 0.0 0.00 0.00 0.00 81 1015.4
20260505011533 63 0 0.0 0.0 0.00 0.00 0.00 81 1015.3
20260505011019 64 0 0.0 0.0 0.00 0.00 0.00 80 1015.4
20260505010515 64 0 0.0 0.0 0.00 0.00 0.00 78 1015.3
20260505010034 65 0 0.0 0.0 0.00 0.00 0.00 77 1015.3
20260505005514 66 0 0.0 0.0 0.00 0.00 0.00 75 1015.2
20260505005014 66 0 0.0 0.0 0.00 0.00 0.00 74 1015.2
20260505004536 67 0 0.0 0.0 0.00 0.00 0.00 74 1015.3
20260505004013 67 0 0.0 0.0 0.00 0.00 0.00 73 1015.1
20260505003514 68 0 0.0 0.0 0.00 0.00 0.00 72 1015.1
20260505003033 69 0 0.0 0.0 0.00 0.00 0.00 70 1015.2
20260505002516 69 0 0.0 0.0 0.00 0.00 0.00 69 1015.1
20260505002017 70 0 0.0 0.0 0.00 0.00 0.00 68 1015.0
20260505001534 70 0 0.0 0.0 0.00 0.00 0.00 67 1014.9
20260505001016 70 0 0.0 0.9 0.00 0.00 0.00 67 1014.8
20260505000516 71 0 0.0 0.9 0.00 0.00 0.00 66 1014.7
20260505000040 71 26 0.0 0.9 0.00 0.00 0.00 66 1014.7
20260504235515 71 0 0.0 3.5 0.00 0.00 0.00 65 1014.8
20260504235015 72 48 0.9 3.5 0.00 0.00 0.00 64 1014.6
20260504234538 72 286 0.9 3.5 0.00 0.00 0.00 64 1014.5
20260504234015 72 298 0.0 2.6 0.00 0.00 0.00 63 1014.5
20260504233515 73 315 0.0 2.6 0.00 0.00 0.00 63 1014.4
20260504233034 73 280 0.9 2.6 0.00 0.00 0.00 63 1014.4
20260504232516 73 323 0.0 3.5 0.00 0.00 0.00 63 1014.4
20260504232016 73 301 0.9 6.1 0.00 0.00 0.00 62 1014.4
20260504231537 73 354 0.0 6.1 0.00 0.00 0.00 62 1014.4
20260504231015 74 346 0.9 3.5 0.00 0.00 0.00 62 1014.4
20260504230515 74 306 0.0 4.3 0.00 0.00 0.00 62 1014.4
20260504230034 74 27 0.9 4.3 0.00 0.00 0.00 61 1014.5
20260504225516 74 23 0.9 5.2 0.00 0.00 0.00 61 1014.4
20260504225016 75 8 1.7 5.2 0.00 0.00 0.00 60 1014.4
20260504224531 75 326 0.9 5.2 0.00 0.00 0.00 60 1014.4
20260504224016 75 155 0.9 5.2 0.00 0.00 0.00 60 1014.5
20260504223514 76 39 1.7 5.2 0.00 0.00 0.00 59 1014.5
20260504223042 76 298 0.9 5.2 0.00 0.00 0.00 59 1014.5
20260504222518 76 30 1.7 4.3 0.00 0.00 0.00 58 1014.4
20260504222019 77 307 1.7 9.6 0.00 0.00 0.00 58 1014.4
20260504221536 77 4 1.7 9.6 0.00 0.00 0.00 58 1014.5
20260504221015 77 360 1.7 5.2 0.00 0.00 0.00 58 1014.5
20260504220515 77 338 1.7 5.2 0.00 0.00 0.00 58 1014.4
20260504220031 77 12 1.7 6.1 0.00 0.00 0.00 58 1014.5
20260504215517 77 26 2.6 6.1 0.00 0.00 0.00 57 1014.4
20260504215017 78 6 3.5 6.1 0.00 0.00 0.00 56 1014.5
20260504214534 79 359 1.7 5.2 0.00 0.00 0.00 55 1014.6
20260504214014 78 172 0.9 4.3 0.00 0.00 0.00 57 1014.5
20260504213514 79 18 1.7 5.2 0.00 0.00 0.00 56 1014.5
20260504213052 79 114 1.7 5.2 0.00 0.00 0.00 55 1014.5
20260504212520 80 330 0.9 4.3 0.00 0.00 0.00 55 1014.6
20260504212015 80 340 0.9 4.3 0.00 0.00 0.00 55 1014.4
20260504211537 80 331 0.9 4.3 0.00 0.00 0.00 56 1014.4
20260504211016 79 34 1.7 4.3 0.00 0.00 0.00 55 1014.4
20260504210513 80 233 0.9 6.1 0.00 0.00 0.00 55 1014.5
20260504210034 79 340 0.9 6.1 0.00 0.00 0.00 56 1014.4
20260504205513 79 354 1.7 7.0 0.00 0.00 0.00 55 1014.5
20260504205015 79 27 0.9 7.0 0.00 0.00 0.00 56 1014.4